Flag for Honduras Weather past 2 weeks in La Ceiba, Honduras

Now
88 °F

Broken clouds.


Feels Like: 98 °F
Forecast: N/A
Wind: 7 mph from North

Location: La Ceiba Airport

Current Time: Sep 21, 2014 at 4:37:12 PM

Latest Report: Sep 21, 2014 at 4:00 PM


Visibility: N/A

Pressure: 29.80 "Hg

Humidity: 66%

Dew point: 75 °F

Location of La CeibaLocation

Historic Weather in La Ceiba — Graph

°F

La Ceiba temperature yesterday

Maximum temperature yesterday: 91 °F (at 12:00 PM)
Minimum temperature yesterday: 75 °F (at 3:00 AM)
Average temperature yesterday: 81 °F

Past Weeks' High & Low Weather Summary

 TemperatureHumidityPressure
High91 °F (Sep 20, 12:00 PM)100% (Sep 7, 1:00 AM)29.98 "Hg (Sep 7, 1:00 AM)
Low72 °F (Sep 6, 9:00 PM)63% (Sep 14, 1:00 PM)29.74 "Hg (Sep 11, 3:00 PM)
Average80 °F83%29.86 "Hg
* Reported Sep 6 3:00 PM — Sep 21 3:00 PM, La Ceiba, Weather by CustomWeather, © 2014

Note: Actual official high and low records may vary slightly from our data, if they occured in-between our weather recording intervals... More about our weather records

Advertising

La Ceiba weather history for previous 24 hours

 ConditionsComfort  
Time TempWeatherWind HumidityBarometerVisibility
3:00 PM
Sep 21
88 °FBroken clouds.7 mph66%29.80 "HgN/A
2:00 PM88 °FBroken clouds.7 mph70%29.83 "HgN/A
1:00 PM90 °FBroken clouds.7 mph67%29.86 "HgN/A
12:00 PM88 °FBroken clouds.8 mph70%29.89 "HgN/A
11:00 AM88 °FBroken clouds.6 mph70%29.89 "HgN/A
10:00 AM88 °FBroken clouds.6 mph70%29.92 "HgN/A
9:00 AM86 °FPartly sunny.5 mph75%29.89 "HgN/A
8:00 AM86 °FPartly sunny.No wind75%29.89 "HgN/A
7:00 AM79 °FPartly sunny.2 mph89%29.86 "HgN/A
6:00 AM73 °FPartly sunny.2 mph100%29.86 "HgN/A
5:00 AM73 °FPassing clouds.No wind94%29.83 "HgN/A
4:00 AM73 °FPassing clouds.No wind94%29.83 "HgN/A
3:00 AM73 °FPassing clouds.3 mph94%29.83 "HgN/A
2:00 AM73 °FPassing clouds.No wind94%29.83 "HgN/A
1:00 AM75 °FPassing clouds.2 mph94%29.83 "HgN/A
12:00 AM75 °FPassing clouds.2 mph94%29.86 "HgN/A
11:00 PM
Sep 20
75 °FPassing clouds.3 mph89%29.89 "HgN/A
10:00 PM77 °FPassing clouds.No wind94%29.89 "HgN/A
9:00 PM79 °FPassing clouds.3 mph89%29.89 "HgN/A
8:00 PM79 °FPassing clouds.2 mph89%29.86 "HgN/A
7:00 PM79 °FPassing clouds.3 mph89%29.83 "HgN/A
6:00 PM81 °FThunderstorms. Passing clouds.3 mph89%29.80 "HgN/A
5:00 PM84 °FScattered showers. Broken clouds.3 mph84%29.80 "Hg5 mi
4:00 PM86 °FScattered showers. Scattered clouds.8 mph79%29.80 "Hg4 mi
Weather by CustomWeather, © 2014

See weather overviewHow to use our weather pages